Hourly Data Report for July 25, 2021

KENORA A
ONTARIO
Current Station Operator: NAVCAN

49°47'18.000" N
94°21'47.000" W
409.70 m
6034076
71850
YQK

Download Data

Hourly Data (July 2021)
Hourly Data Report for July 25, 2021
TIME
LST
Temp Definition
°C
Dew Point Definition
°C
Rel Hum Definition
%
Precip. Amount Definition
mm

Wind Dir Definition
10's deg

Wind Spd Definition
km/h
Visibility Definition
km
Stn Press Definition
kPa
Hmdx Definition


Wind Chill Definition


Weather Definition


00:00 19.5 12.1 62   26 10 32.2 96.22     Clear
01:00 18.9 11.7 62   26 10 32.2 96.22     LegendNANA
02:00 18.7 11.7 63   26 9 32.2 96.22     LegendNANA
03:00 18.7 11.2 61   27 9 32.2 96.22     Clear
04:00 17.7 11.8 68   26 9 32.2 96.22     LegendNANA
05:00 17.9 10.9 64   28 13 32.2 96.25     LegendNANA
06:00 17.8 11.5 66   28 13 32.2 96.30     Clear
07:00 18.9 12.3 65   28 14 32.2 96.34     LegendNANA
08:00 20.5 13.0 62   29 17 32.2 96.38     LegendNANA
09:00 22.1 12.6 55   28 16 32.2 96.41 25   Mainly Clear
10:00 23.9 11.8 46   30 15 32.2 96.43 26   LegendNANA
11:00 25.5 11.7 41   29 18 32.2 96.42 28   LegendNANA
12:00 26.0 9.8 36   30 23 32.2 96.42 27   Mainly Clear
13:00 26.2 9.1 33   30 21 32.2 96.41 27   LegendNANA
14:00 26.0 9.1 34   32 26 32.2 96.40 27   LegendNANA
15:00 27.5 8.9 30   31 19 32.2 96.40 28   Mostly Cloudy
16:00 27.2 7.5 28   31 17 32.2 96.39 27   LegendNANA
17:00 27.5 7.8 28   33 21 32.2 96.37 28   LegendNANA
18:00 26.8 6.9 28   30 20 32.2 96.37 27   Mainly Clear
19:00 25.0 7.7 33   31 11 32.2 96.36 25   LegendNANA
20:00 23.7 8.7 38   31 8 32.2 96.42     LegendNANA
21:00 22.6 9.3 42   32 6 32.2 96.47     Mainly Clear
22:00 22.1 9.9 45   32 8 32.2 96.51     LegendNANA
23:00 21.4 9.7 47   34 9 32.2 96.51     LegendNANA

Notes on Data Quality.

Legend

  • E = Estimated
  • M = Missing
  • NA = Not Available*
  • [empty] = Indicates an unobserved value
Date modified: